Time,TemperatureF,DewpointF,PressureIn,WindDirection,WindDirectionDegrees,WindSpeedMPH,WindSpeedGustMPH,Humidity,HourlyPrecipIn,Conditions,Clouds,dailyrainin,SolarRadiationWatts/m^2,SoftwareType,DateUTC
2013-01-21 00:02:00,42.0,-13.0,-100.00,North,359,2.0,18.0,9,-99.99,,,0.00,0.000000,,2013-01-21 08:02:00,
2013-01-21 00:13:00,42.0,-13.0,-100.00,North,359,2.0,18.0,9,-99.99,,,0.00,0.000000,,2013-01-21 08:13:00,
2013-01-21 00:22:00,42.0,-13.0,-100.00,North,359,2.0,18.0,9,-99.99,,,0.00,0.000000,,2013-01-21 08:22:00,
2013-01-21 00:53:00,46.0,-15.0,-100.00,NNE,23,5.0,10.0,7,0.00,,,-99.99,0.000000,,2013-01-21 08:53:00,
2013-01-21 01:02:00,46.0,-15.0,-100.00,NNE,23,5.0,10.0,7,0.00,,,-99.99,0.000000,,2013-01-21 09:02:00,
2013-01-21 01:53:00,46.0,-18.0,-100.00,SW,231,6.0,17.0,6,-99.99,,,0.00,0.000000,,2013-01-21 09:53:00,
2013-01-21 02:02:00,46.0,-18.0,-100.00,SW,231,6.0,17.0,6,-99.99,,,0.00,0.000000,,2013-01-21 10:02:00,
2013-01-21 02:12:00,46.0,-18.0,-100.00,SW,231,6.0,17.0,6,-99.99,,,0.00,0.000000,,2013-01-21 10:12:00,
2013-01-21 02:22:00,46.0,-18.0,-100.00,SW,231,6.0,17.0,6,-99.99,,,0.00,0.000000,,2013-01-21 10:22:00,
2013-01-21 02:52:00,44.0,-19.0,-100.00,NE,43,3.0,17.0,6,0.00,,,-99.99,0.000000,,2013-01-21 10:52:00,
2013-01-21 03:02:00,44.0,-19.0,-100.00,NE,43,3.0,17.0,6,0.00,,,-99.99,0.000000,,2013-01-21 11:02:00,
2013-01-21 03:12:00,44.0,-19.0,-100.00,NE,43,3.0,17.0,6,0.00,,,-99.99,0.000000,,2013-01-21 11:12:00,
2013-01-21 03:22:00,44.0,-19.0,-100.00,NE,43,3.0,17.0,6,0.00,,,-99.99,0.000000,,2013-01-21 11:22:00,
2013-01-21 03:53:00,46.0,-18.0,-100.00,ENE,70,6.0,18.0,6,0.00,,,0.00,0.000000,,2013-01-21 11:53:00,
2013-01-21 04:02:00,46.0,-18.0,-100.00,ENE,70,6.0,18.0,6,0.00,,,0.00,0.000000,,2013-01-21 12:02:00,
2013-01-21 04:53:00,45.0,-18.0,-100.00,NE,50,4.0,11.0,6,0.00,,,0.00,0.000000,,2013-01-21 12:53:00,
2013-01-21 05:02:00,45.0,-18.0,-100.00,NE,50,4.0,11.0,6,0.00,,,0.00,0.000000,,2013-01-21 13:02:00,
2013-01-21 05:12:00,45.0,-18.0,-100.00,NE,50,4.0,11.0,6,0.00,,,0.00,0.000000,,2013-01-21 13:12:00,
2013-01-21 05:22:00,45.0,-18.0,-100.00,NE,50,4.0,11.0,6,0.00,,,0.00,0.000000,,2013-01-21 13:22:00,
2013-01-21 05:53:00,44.0,-16.0,-100.00,NNW,343,3.0,11.0,7,0.00,,,0.00,0.000000,,2013-01-21 13:53:00,
2013-01-21 06:03:00,44.0,-16.0,-100.00,NNW,343,3.0,11.0,7,0.00,,,0.00,0.000000,,2013-01-21 14:03:00,
2013-01-21 06:12:00,44.0,-16.0,-100.00,NNW,343,3.0,11.0,7,0.00,,,0.00,0.000000,,2013-01-21 14:12:00,
2013-01-21 06:22:00,44.0,-16.0,-100.00,NNW,343,3.0,11.0,7,0.00,,,0.00,0.000000,,2013-01-21 14:22:00,
2013-01-21 06:53:00,44.0,-16.0,-100.00,NNE,24,4.0,14.0,7,0.00,,,0.00,0.000000,,2013-01-21 14:53:00,
2013-01-21 07:03:00,44.0,-16.0,-100.00,NNE,24,4.0,14.0,7,0.00,,,0.00,0.000000,,2013-01-21 15:03:00,
2013-01-21 07:12:00,44.0,-16.0,-100.00,NNE,24,4.0,14.0,7,0.00,,,0.00,0.000000,,2013-01-21 15:12:00,
2013-01-21 07:22:00,44.0,-16.0,-100.00,NNE,24,4.0,14.0,7,0.00,,,0.00,0.000000,,2013-01-21 15:22:00,
2013-01-21 07:53:00,44.0,-16.0,-100.00,SSE,149,6.0,17.0,7,0.00,,,0.00,16.000000,,2013-01-21 15:53:00,
2013-01-21 08:03:00,44.0,-16.0,-100.00,SSE,149,6.0,17.0,7,0.00,,,0.00,16.000000,,2013-01-21 16:03:00,
2013-01-21 08:12:00,44.0,-16.0,-100.00,SSE,149,6.0,17.0,7,0.00,,,0.00,16.000000,,2013-01-21 16:12:00,
2013-01-21 08:22:00,44.0,-16.0,-100.00,SSE,149,6.0,17.0,7,0.00,,,0.00,16.000000,,2013-01-21 16:22:00,
2013-01-21 08:53:00,47.0,-14.0,-100.00,NNE,15,6.0,19.0,7,0.00,,,0.00,227.000000,,2013-01-21 16:53:00,
2013-01-21 09:02:00,47.0,-14.0,-100.00,NNE,15,6.0,19.0,7,0.00,,,0.00,227.000000,,2013-01-21 17:02:00,
2013-01-21 09:12:00,47.0,-14.0,-100.00,NNE,15,6.0,19.0,7,0.00,,,0.00,227.000000,,2013-01-21 17:12:00,
2013-01-21 09:22:00,47.0,-14.0,-100.00,NNE,15,6.0,19.0,7,0.00,,,0.00,227.000000,,2013-01-21 17:22:00,
2013-01-21 09:53:00,48.0,-10.0,-100.00,NNE,12,7.0,17.0,8,0.00,,,0.00,468.000000,,2013-01-21 17:53:00,
2013-01-21 10:02:00,48.0,-10.0,-100.00,NNE,12,7.0,17.0,8,0.00,,,0.00,468.000000,,2013-01-21 18:02:00,
2013-01-21 10:12:00,48.0,-10.0,-100.00,NNE,12,7.0,17.0,8,0.00,,,0.00,468.000000,,2013-01-21 18:12:00,
2013-01-21 10:22:00,48.0,-10.0,-100.00,NNE,12,7.0,17.0,8,0.00,,,0.00,468.000000,,2013-01-21 18:22:00,
2013-01-21 10:53:00,50.0,-9.0,-100.00,North,0,8.0,16.0,8,0.00,,,0.00,659.000000,,2013-01-21 18:53:00,
2013-01-21 11:03:00,50.0,-9.0,-100.00,North,0,8.0,16.0,8,0.00,,,0.00,659.000000,,2013-01-21 19:03:00,
2013-01-21 11:12:00,50.0,-9.0,-100.00,North,0,8.0,16.0,8,0.00,,,0.00,659.000000,,2013-01-21 19:12:00,
2013-01-21 11:22:00,50.0,-9.0,-100.00,North,0,8.0,16.0,8,0.00,,,0.00,659.000000,,2013-01-21 19:22:00,
2013-01-21 11:53:00,51.0,-8.0,-100.00,NE,55,13.0,27.0,8,0.00,,,-99.99,783.000000,,2013-01-21 19:53:00,
2013-01-21 12:03:00,51.0,-8.0,-100.00,NE,55,13.0,27.0,8,0.00,,,-99.99,783.000000,,2013-01-21 20:03:00,
2013-01-21 12:12:00,51.0,-8.0,-100.00,NE,55,13.0,27.0,8,0.00,,,-99.99,783.000000,,2013-01-21 20:12:00,
2013-01-21 12:22:00,51.0,-8.0,-100.00,NE,55,13.0,27.0,8,0.00,,,-99.99,783.000000,,2013-01-21 20:22:00,
2013-01-21 12:53:00,54.0,-4.0,-100.00,South,178,9.0,26.0,9,0.00,,,0.00,836.000000,,2013-01-21 20:53:00,
2013-01-21 13:03:00,54.0,-4.0,-100.00,South,178,9.0,26.0,9,0.00,,,0.00,836.000000,,2013-01-21 21:03:00,
2013-01-21 13:12:00,54.0,-4.0,-100.00,South,178,9.0,26.0,9,0.00,,,0.00,836.000000,,2013-01-21 21:12:00,
2013-01-21 13:22:00,54.0,-4.0,-100.00,South,178,9.0,26.0,9,0.00,,,0.00,836.000000,,2013-01-21 21:22:00,
2013-01-21 13:53:00,57.0,-4.0,-100.00,West,279,4.0,16.0,8,0.00,,,0.00,807.000000,,2013-01-21 21:53:00,
2013-01-21 14:03:00,57.0,-4.0,-100.00,West,279,4.0,16.0,8,0.00,,,0.00,807.000000,,2013-01-21 22:03:00,
2013-01-21 14:12:00,57.0,-4.0,-100.00,West,279,4.0,16.0,8,0.00,,,0.00,807.000000,,2013-01-21 22:12:00,
2013-01-21 14:22:00,57.0,-4.0,-100.00,West,279,4.0,16.0,8,0.00,,,0.00,807.000000,,2013-01-21 22:22:00,
2013-01-21 14:53:00,50.0,-7.0,-100.00,East,79,8.0,16.0,9,0.00,,,0.00,699.000000,,2013-01-21 22:53:00,
2013-01-21 15:03:00,50.0,-7.0,-100.00,East,79,8.0,16.0,9,0.00,,,0.00,699.000000,,2013-01-21 23:03:00,
2013-01-21 15:12:00,50.0,-7.0,-100.00,East,79,8.0,16.0,9,0.00,,,0.00,699.000000,,2013-01-21 23:12:00,
2013-01-21 15:22:00,50.0,-7.0,-100.00,East,79,8.0,16.0,9,0.00,,,0.00,699.000000,,2013-01-21 23:22:00,
2013-01-21 15:53:00,49.0,-7.0,-100.00,East,81,13.0,17.0,9,0.00,,,0.00,522.000000,,2013-01-21 23:53:00,
2013-01-21 16:02:00,49.0,-7.0,-100.00,East,81,13.0,17.0,9,0.00,,,0.00,522.000000,,2013-01-22 00:02:00,
2013-01-21 16:12:00,49.0,-7.0,-100.00,East,81,13.0,17.0,9,0.00,,,0.00,522.000000,,2013-01-22 00:12:00,
2013-01-21 16:22:00,49.0,-7.0,-100.00,East,81,13.0,17.0,9,0.00,,,0.00,522.000000,,2013-01-22 00:22:00,
2013-01-21 16:53:00,52.0,-5.0,-100.00,North,352,7.0,20.0,9,0.00,,,0.00,293.000000,,2013-01-22 00:53:00,
2013-01-21 17:02:00,52.0,-5.0,-100.00,North,352,7.0,20.0,9,0.00,,,0.00,293.000000,,2013-01-22 01:02:00,
2013-01-21 17:12:00,52.0,-5.0,-100.00,North,352,7.0,20.0,9,0.00,,,0.00,293.000000,,2013-01-22 01:12:00,
2013-01-21 17:22:00,52.0,-5.0,-100.00,North,352,7.0,20.0,9,0.00,,,0.00,293.000000,,2013-01-22 01:22:00,
2013-01-21 17:52:00,45.0,-6.0,-100.00,ESE,106,7.0,22.0,11,0.00,,,0.00,49.000000,,2013-01-22 01:52:00,
2013-01-21 18:02:00,45.0,-6.0,-100.00,ESE,106,7.0,22.0,11,0.00,,,0.00,49.000000,,2013-01-22 02:02:00,
2013-01-21 18:12:00,45.0,-6.0,-100.00,ESE,106,7.0,22.0,11,0.00,,,0.00,49.000000,,2013-01-22 02:12:00,
2013-01-21 18:22:00,45.0,-6.0,-100.00,ESE,106,7.0,22.0,11,0.00,,,0.00,49.000000,,2013-01-22 02:22:00,
2013-01-21 18:53:00,44.0,-5.0,-100.00,SSE,159,6.0,18.0,12,0.00,,,0.00,0.000000,,2013-01-22 02:53:00,
2013-01-21 19:02:00,44.0,-5.0,-100.00,SSE,159,6.0,18.0,12,0.00,,,0.00,0.000000,,2013-01-22 03:02:00,
2013-01-21 19:12:00,44.0,-5.0,-100.00,SSE,159,6.0,18.0,12,0.00,,,0.00,0.000000,,2013-01-22 03:12:00,
2013-01-21 19:22:00,44.0,-5.0,-100.00,SSE,159,6.0,18.0,12,0.00,,,0.00,0.000000,,2013-01-22 03:22:00,
2013-01-21 19:52:00,46.0,-6.0,-100.00,NE,42,6.0,19.0,11,0.00,,,0.00,0.000000,,2013-01-22 03:52:00,
2013-01-21 20:02:00,46.0,-6.0,-100.00,NE,42,6.0,19.0,11,0.00,,,0.00,0.000000,,2013-01-22 04:02:00,
2013-01-21 20:12:00,46.0,-6.0,-100.00,NE,42,6.0,19.0,11,0.00,,,0.00,0.000000,,2013-01-22 04:12:00,
2013-01-21 20:22:00,46.0,-6.0,-100.00,NE,42,6.0,19.0,11,0.00,,,0.00,0.000000,,2013-01-22 04:22:00,
2013-01-21 20:52:00,44.0,-5.0,-100.00,NNE,16,5.0,14.0,12,0.00,,,0.00,0.000000,,2013-01-22 04:52:00,
2013-01-21 21:03:00,44.0,-5.0,-100.00,NNE,16,5.0,14.0,12,0.00,,,0.00,0.000000,,2013-01-22 05:03:00,
2013-01-21 21:12:00,44.0,-5.0,-100.00,NNE,16,5.0,14.0,12,0.00,,,0.00,0.000000,,2013-01-22 05:12:00,
2013-01-21 21:22:00,44.0,-5.0,-100.00,NNE,16,5.0,14.0,12,0.00,,,0.00,0.000000,,2013-01-22 05:22:00,
2013-01-21 21:53:00,43.0,-6.0,-100.00,East,93,11.0,14.0,12,0.00,,,0.00,0.000000,,2013-01-22 05:53:00,
2013-01-21 22:02:00,43.0,-6.0,-100.00,East,93,11.0,14.0,12,0.00,,,0.00,0.000000,,2013-01-22 06:02:00,
2013-01-21 22:12:00,43.0,-6.0,-100.00,East,93,11.0,14.0,12,0.00,,,0.00,0.000000,,2013-01-22 06:12:00,
2013-01-21 22:22:00,43.0,-6.0,-100.00,East,93,11.0,14.0,12,0.00,,,0.00,0.000000,,2013-01-22 06:22:00,
2013-01-21 22:52:00,43.0,-6.0,-100.00,East,83,5.0,13.0,12,0.00,,,0.00,0.000000,,2013-01-22 06:52:00,
2013-01-21 23:02:00,43.0,-6.0,-100.00,East,83,5.0,13.0,12,0.00,,,0.00,0.000000,,2013-01-22 07:02:00,
2013-01-21 23:11:00,43.0,-6.0,-100.00,East,83,5.0,13.0,12,0.00,,,0.00,0.000000,,2013-01-22 07:11:00,
2013-01-21 23:22:00,43.0,-6.0,-100.00,East,83,5.0,13.0,12,0.00,,,0.00,0.000000,,2013-01-22 07:22:00,
2013-01-21 23:53:00,46.0,-4.0,-100.00,NNE,15,4.0,8.0,12,0.00,,,0.00,0.000000,,2013-01-22 07:53:00,